Погода в Тарасовке

Украина / Запорожская область     47°25′07″N   36°06′54″E
темп.,
°C
ветер,
м/с
пор.,
м/с
влажн.,
%
обл.,
%
осадки,
мм/ч
давл.,
гПа
погр.,
м
14 мая, пт
пт1400:00+13в47885 0.0 1011111
03:00+13в34915 0.0 101065
06:00+14юв3793100 0.0 1009160
09:00+19ююв2372100 0.0 1009347
12:00+24ююз4545100 0.0 1010940
15:00+26юз453797 0.0 10101522
18:00+25юз354617 0.0 1010360
21:00+17ююз467244 0.0 101177
15 мая, сб
сб1500:00+15зюз3575100 0.0 101182
03:00+13зюз2274100 0.0 101328
06:00+13зюз2276100 0.0 101323
09:00+19ююз125245 0.0 1013432
12:00+23юз344215 0.0 10141432
15:00+25юз343939 0.0 10132081
18:00+24ююз3344100 0.0 10121144
21:00+17ююз3365100 0.0 101337
16 мая, вс
вс1600:00+15юв006996 0.0 101311
03:00+15св11716 0.0 101311
06:00+14св3579100 0.0 101280
09:00+21св4661100 0.0 1012416
12:00+25св4547100 0.0 10101165
15:00+27св4542100 0.0 10091794
18:00+27св35515 0.0 1006633
21:00+22в4871100 0.1 1006210
17 мая, пн
пн1700:00+18св2282100 0.1 100515
03:00+16юв3385100 0.1 100535
06:00+17ссв2491100 0.6 100290
09:00+22ю357136 0.6 1005518
12:00+25ю3358100 0.0 10051274
15:00+26зюз2355100 0.3 10051590
18:00+22зсз5671100 1.6 1006484
21:00+18зюз2281100 1.8 100815
18 мая, вт
вт1800:00+17з3684100 0.0 100995
03:00+16зюз3688100 0.0 1010135
06:00+15юз348930 0.0 1011112
09:00+20юз44685 0.0 1012652
12:00+23юз56520 0.0 10121649
15:00+25зюз56410 0.0 10122078
18:00+23з34482 0.0 10121609
21:00+18ю336690 0.0 101231